Location: Al Mulaqqa?ah
(24.1833°N, 32.8833°E)
Time: 02:47:45
(UTC+00:00)

Atlas Centaur 2 - Pass Details

Date: 26 September 2021
Orbit: 459 x 1308 km, 30.4° (Epoch: 15 October)

Event Time Altitude Azimuth Distance (km) Brightness Sun altitude
Rises 18:39:22 0° 288° (WNW) 4,254 6.7 -40.9°
Reaches altitude 10° 18:42:20 10° 291° (WNW) 3,312 5.9 -41.6°
Enters shadow 18:47:56 44° 304° (WNW) 1,717 3.9 -42.8°
